Showing default

IRIDE-MS2-HEO-5, 64571

Orbit data source: Space-Track

IRIDE-MS2-HEO-5, 64571 is an Italian payload satellite in SSO that was launched on Mon, 23 Jun 2025 UTC via an FALCON 9 launch vehicle from the Air Force Western Test Range (AFWTR). Payload-class satellites include a variety of spacecraft equipped with specific instruments for various scientific and technological missions. These include communications satellites like Starlink; space stations such as the ISS; scientific satellites like the Hubble; Earth observation satellites from companies like Planet Labs, Umbra, and HawkEye 360; GPS; miniature CubeSats for education and research; and military/defense satellites.

Loading next visibility...
Identifier
64571, 2025-135AV
Orbit
SSO
Country
Flag of ITIT
Related business
Manufacturer
ArgoTec
Mission
Operational Civil Imaging
Bus & Motor
HAWK, Unknown motor
Mass
65 kg wet, 65 kg dry
Launch date (UTC)
2025-06-23 (10 months ago)
Launch vehicle
FALCON 9
Launch site
Air Force Western Test Range (AFWTR)
Object type
Payload
Rocket body
Debris
Shape & HBR
Box + 2 Pan, 3.0 m
Radar Cross Section
0.683 m², Medium (>0.1 m² and < 1m²)

Expand to show TLE details & history
Last TLE update: 7 hours ago

TLE from 7 hours ago
0 IRIDE-MS2-HEO-5
1 64571U 25135AV  26100.55861013  .00001918  00000-0  18672-3 0  9993
2 64571  97.7631 215.6145 0003271 154.1405 205.9979 14.93684628 43790
Epoch: 2026-04-10T13:24Z
TLE epoch observation values (Epoch: 2026-04-10T13:24:23.915Z)
Latitude
0.00001°
Longitude
175.72431°
Altitude
591.551 km
Speed
7.563 km/s
True Right ascension
14h 22m 27s
True Declination
0° 00' 00"
Sunlit
Object was in full shadow at epoch
Visualization orbit readout
Latitude
Unknown
Longitude
Unknown
Altitude
Unknown
Speed
Unknown
Apparent Right ascension
Unknown
Apparent Declination
Unknown
Sunlit
N/A
Visualization observer readout
Local Sidereal Time
02:46:39
Azimuth
Unknown
Elevation
Unknown
Doppler factor
Unknown
Orbital elements
Apogee altitude
585.752 km
Perigee altitude
581.198 km
Semi-major axis
6,961.612 km
Eccentricity
0.00033
Inclination
97.7631°
RAAN
215.6145°
Arg. of periapsis
154.1405°
True anomaly
205.98148°
Mean anomaly
205.9979°
Eccentric anomaly
205.98969°
Mean motion
3.73662 °/min
Orbital period
96.34 mins
BSTAR
0.00018672
Loading maneuver chart data...
Computing Atmospheric mass density...
Loading historical data...
Loading historical data...
Loading historical data...
Loading historical data...
Loading historical data...
Loading historical data...
Loading historical data...

Documentation

Showing up to 5 results
|